EW2849 Weather Reports


Display with metric or nautical units.
time (UTC)temp
F
wind
direction
speed
MPH
gust
MPH
rain 1hr
in
rain 24hr
in
rain mn
in
humidity
%
barometer
mb
20260831043922 62 225 9.0 14.0 0.00 0.00 0.00 95 1008.9
20260831042721 63 236 7.0 10.0 0.00 0.00 0.00 95 1008.9
20260831041540 63 248 10.0 13.0 0.00 0.00 0.00 95 1008.9
20260831040340 62 248 10.0 13.0 0.00 0.00 0.00 96 1008.9
20260831035139 62 225 9.0 13.0 0.00 0.00 0.00 96 1008.9
20260831033917 62 248 11.0 12.0 0.00 0.00 0.00 96 1008.9
20260831032716 63 225 7.0 9.0 0.00 0.00 0.00 95 1008.9
20260831031515 63 237 10.0 15.0 0.00 0.00 0.00 95 1008.9
20260831030414 63 248 13.0 17.0 0.00 0.00 0.00 95 1008.9
20260831025213 63 248 10.0 15.0 0.00 0.00 0.00 95 1008.9
20260831024012 63 243 12.0 14.0 0.00 0.00 0.00 95 1008.9
20260831022810 63 244 11.0 13.0 0.00 0.00 0.00 96 1008.9
20260831021610 63 225 11.0 15.0 0.00 0.00 0.00 96 1008.9
20260831020428 63 225 9.0 12.0 0.00 0.00 0.00 96 1008.9
20260831015207 63 231 9.0 13.0 0.00 0.00 0.00 96 1008.9
20260831014006 63 243 9.0 9.0 0.00 0.00 0.00 96 1008.9
20260831012805 63 248 6.0 7.0 0.00 0.00 0.00 96 1008.9
20260831011604 63 225 6.0 11.0 0.00 0.00 0.00 96 1008.9
20260831010403 64 225 8.0 9.0 0.00 0.00 0.00 96 1008.9
20260831005202 64 225 8.0 11.0 0.00 0.00 0.00 95 1008.9
20260831004001 64 230 6.0 7.0 0.00 0.00 0.00 95 1008.9
20260831002800 65 225 7.0 7.0 0.00 0.00 0.00 95 1008.9
20260831001559 64 233 6.0 11.0 0.00 0.00 0.00 94 1008.9
20260831000358 65 225 5.0 6.0 0.00 0.00 0.00 94 1008.9
20260830235157 65 225 3.0 5.0 0.00 0.00 0.00 93 1008.9
20260830233956 64 220 1.0 3.0 0.00 0.00 0.00 93 1008.9
20260830232755 64 225 2.0 6.0 0.00 0.00 0.00 92 1008.9
20260830231553 64 225 2.0 3.0 0.00 0.00 0.00 91 1008.9
20260830230352 65 196 2.0 3.0 0.00 0.00 0.00 91 1008.9
20260830225151 65 203 3.0 4.0 0.00 0.00 0.00 91 1008.9
20260830223950 66 203 3.0 4.0 0.00 0.00 0.00 91 1008.9
20260830222749 65 225 2.0 6.0 0.00 0.00 0.00 91 1008.9
20260830221608 66 248 4.0 5.0 0.00 0.00 0.00 90 1008.9
20260830220346 66 225 4.0 5.0 0.00 0.00 0.00 90 1008.9
20260830215203 65 239 4.0 5.0 0.00 0.00 0.00 90 1008.9
20260830214003 65 219 3.0 3.0 0.00 0.00 0.00 89 1008.9
20260830212802 66 203 4.0 7.0 0.00 0.00 0.00 89 1008.9
20260830211600 66 203 4.0 6.0 0.00 0.00 0.00 88 1008.9
20260830210400 66 225 3.0 5.0 0.00 0.00 0.00 88 1008.9
20260830205159 66 210 2.0 3.0 0.00 0.00 0.00 87 1008.9
20260830203957 67 203 4.0 5.0 0.00 0.00 0.00 86 1008.9
20260830202816 67 203 4.0 7.0 0.00 0.00 0.00 86 1008.9
20260830201555 67 203 4.0 7.0 0.00 0.00 0.00 85 1008.9
20260830200354 67 203 6.0 6.0 0.00 0.00 0.00 85 1008.9
20260830195153 68 218 6.0 8.0 0.00 0.00 0.00 84 1008.9
20260830193952 68 225 5.0 9.0 0.00 0.00 0.00 84 1008.9
20260830192751 68 214 4.0 5.0 0.00 0.00 0.00 83 1008.9
20260830191550 69 225 8.0 10.0 0.00 0.00 0.00 82 1008.9
20260830190409 69 225 6.0 11.0 0.00 0.00 0.00 81 1008.9
20260830185208 69 218 4.0 8.0 0.00 0.00 0.00 80 1008.9
20260830184006 70 203 4.0 6.0 0.00 0.00 0.00 80 1008.9
20260830182746 71 203 8.0 9.0 0.00 0.00 0.00 79 1008.9
20260830181544 71 225 4.0 7.0 0.00 0.00 0.00 79 1008.9
20260830180343 71 212 4.0 5.0 0.00 0.00 0.00 78 1008.9
20260830175142 71 203 4.0 7.0 0.00 0.00 0.00 78 1008.9
20260830174001 71 217 5.0 8.0 0.00 0.00 0.00 78 1008.9
20260830172740 71 221 6.0 9.0 0.00 0.00 0.00 78 1008.9
20260830171559 71 219 9.0 13.0 0.00 0.00 0.00 77 1008.9
20260830170358 72 219 7.0 11.0 0.00 0.00 0.00 77 1008.9
20260830165137 72 214 6.0 9.0 0.00 0.00 0.00 76 1008.9
20260830163935 72 248 8.0 9.0 0.00 0.00 0.00 76 1008.9
20260830162734 73 225 10.0 14.0 0.00 0.00 0.00 75 1008.9
20260830161553 73 225 11.0 16.0 0.00 0.00 0.00 74 1008.9
20260830160353 73 225 10.0 16.0 0.00 0.00 0.00 73 1008.9
20260830155131 73 243 6.0 8.0 0.00 0.00 0.00 73 1008.9
20260830154010 74 229 11.0 15.0 0.00 0.00 0.00 73 1008.9
20260830152729 74 203 13.0 15.0 0.00 0.00 0.00 71 1008.9
20260830151527 75 225 9.0 14.0 0.00 0.00 0.00 72 1008.9
20260830150346 74 225 12.0 15.0 0.00 0.00 0.00 72 1008.9
20260830145125 74 225 13.0 20.0 0.00 0.00 0.00 73 1008.9
20260830143944 74 225 11.0 14.0 0.00 0.00 0.00 72 1008.9
20260830142723 75 225 14.0 19.0 0.00 0.00 0.00 76 1009.7
20260830141543 75 241 10.0 13.0 0.00 0.00 0.00 77 1010.5
20260830140320 74 225 6.0 11.0 0.00 0.00 0.00 78 1012.2
20260830135159 73 248 8.0 10.0 0.00 0.00 0.00 79 1012.2
20260830133919 73 243 7.0 10.0 0.00 0.00 0.00 79 1012.2
20260830132717 74 237 6.0 9.0 0.00 0.00 0.00 80 1012.2
20260830131516 73 251 7.0 9.0 0.00 0.00 0.00 80 1012.2
20260830130415 73 248 7.0 11.0 0.00 0.00 0.00 82 1012.2
20260830125213 73 231 11.0 12.0 0.00 0.00 0.00 81 1012.2
20260830124013 73 248 9.0 15.0 0.00 0.00 0.00 82 1012.2
20260830122811 72 248 9.0 14.0 0.00 0.00 0.00 83 1012.2
20260830121610 72 248 6.0 8.0 0.00 0.00 0.00 86 1012.2
20260830120408 70 263 6.0 13.0 0.00 0.00 0.00 87 1012.2
20260830115207 70 251 12.0 16.0 0.00 0.00 0.00 86 1012.2
20260830114006 70 261 7.0 13.0 0.00 0.00 0.00 86 1012.2
20260830112805 70 248 10.0 16.0 0.00 0.00 0.00 86 1012.2
20260830111604 71 248 12.0 15.0 0.00 0.00 0.00 87 1009.7
20260830110423 69 241 9.0 14.0 0.00 0.00 0.00 88 1008.9
20260830105201 70 261 8.0 12.0 0.00 0.00 0.00 90 1008.9
20260830104001 69 248 9.0 11.0 0.00 0.00 0.00 92 1008.9
20260830102759 68 257 6.0 7.0 0.00 0.00 0.00 92 1010.5
20260830101558 68 225 5.0 9.0 0.00 0.00 0.00 92 1011.4
20260830100357 68 270 12.0 15.0 0.00 0.00 0.00 91 1009.7
20260830095156 68 239 11.0 15.0 0.00 0.00 0.00 92 1008.9
20260830093955 68 241 8.0 13.0 0.00 0.00 0.00 93 1008.9
20260830092754 68 256 11.0 16.0 0.00 0.00 0.00 95 1008.9
20260830091553 67 248 10.0 15.0 0.00 0.00 0.00 96 1008.9
20260830090351 66 262 9.0 15.0 0.00 0.00 0.00 97 1008.9
20260830085150 65 260 12.0 15.0 0.00 0.00 0.00 97 1008.9
20260830084008 66 263 8.0 13.0 0.00 0.00 0.00 97 1008.9
20260830082748 66 248 8.0 9.0 0.00 0.00 0.00 97 1008.9
20260830081546 66 248 8.0 11.0 0.00 0.00 0.00 98 1008.9
20260830080346 65 248 11.0 13.0 0.00 0.00 0.00 98 1008.9
20260830075144 65 233 12.0 17.0 0.00 0.00 0.00 99 1008.9
20260830074003 64 232 9.0 15.0 0.00 0.00 0.00 99 1008.9
20260830072742 64 225 14.0 20.0 0.00 0.00 0.00 100 1008.9
20260830071601 64 225 13.0 16.0 0.00 0.00 0.00 100 1008.9
20260830070340 63 225 14.0 17.0 0.00 0.00 0.00 100 1008.9
20260830065158 63 225 9.0 10.0 0.00 0.00 0.00 100 1008.9
20260830063937 63 225 13.0 18.0 0.00 0.00 0.00 100 1008.9
20260830062736 63 248 9.0 17.0 0.00 0.00 0.00 100 1008.9
20260830061535 63 248 12.0 14.0 0.00 0.00 0.00 100 1008.9
20260830060333 63 225 10.0 12.0 0.00 0.00 0.00 100 1008.9
20260830055133 63 234 8.0 9.0 0.00 0.00 0.00 100 1008.9
20260830053931 63 248 3.0 6.0 0.00 0.00 0.00 99 1008.9
20260830052729 63 259 6.0 7.0 0.00 0.00 0.00 99 1008.9
20260830051528 63 248 9.0 11.0 0.00 0.00 0.00 99 1008.9
20260830050347 63 238 9.0 13.0 0.00 0.00 0.00 98 1008.9
20260830045147 63 237 10.0 13.0 0.00 0.00 0.00 98 1008.9